Hourly Data Report for May 01, 2020

OTTAWA INTL A
ONTARIO
Current Station Operator: NAVCAN

45°19'00.000" N
75°40'00.000" W
114.90 m
6106001
71628
YOW

Download Data

Hourly Data (May 2020)
Hourly Data Report for May 1, 2020
TIME
LST
Temp Definition
°C
Dew Point Definition
°C
Rel Hum Definition
%
Precip. Amount Definition
mm

Wind Dir Definition
10's deg

Wind Spd Definition
km/h
Visibility Definition
km
Stn Press Definition
kPa
Hmdx Definition


Wind Chill Definition


Weather Definition


00:00 10.1 9.8 98   8 18 8.1 99.09     Rain, Fog
01:00 10.3 10.0 98   8 19 16.1 99.06     Rain
02:00 10.3 10.1 98   10 13 6.4 98.96     Rain, Fog
03:00 10.6 10.3 98   6 9 8.1 98.97     Rain, Fog
04:00 10.3 10.0 98   30 10 16.1 98.99     Rain
05:00 9.9 9.7 98   25 6 2.4 99.06     Fog
06:00 9.8 9.6 99   26 10 1.6 99.14     Rain, Fog
07:00 10.4 10.2 99   26 9 3.2 99.23     Rain, Fog
08:00 10.8 10.5 98   29 15 24.1 99.29     LegendNANA
09:00 12.9 11.5 91   32 18 24.1 99.33     LegendNANA
10:00 12.8 9.6 81   29 22 24.1 99.36     Mostly Cloudy
11:00 10.9 7.9 82   29 32 24.1 99.42     LegendNANA
12:00 11.6 7.3 75   29 28 24.1 99.48     LegendNANA
13:00 11.1 6.6 73   32 25 24.1 99.52     Mostly Cloudy
14:00 11.2 5.2 66   34 32 24.1 99.57     LegendNANA
15:00 12.7 4.4 57   33 32 24.1 99.56     LegendNANA
16:00 13.8 2.9 48   34 30 24.1 99.52     Clear
17:00 14.2 1.5 42   33 28 24.1 99.54     LegendNANA
18:00 13.4 0.8 42   34 28 24.1 99.60     LegendNANA
19:00 12.1 0.3 44   34 19 24.1 99.68     Clear
20:00 10.7 0.9 51   34 15 24.1 99.78     LegendNANA
21:00 9.8 0.5 52   35 12 24.1 99.89     LegendNANA
22:00 7.0 0.4 63   3 4 24.1 99.95     Clear
23:00 5.7 0.7 70   4 4 24.1 99.98     LegendNANA

Notes on Data Quality.

Legend

  • E = Estimated
  • M = Missing
  • NA = Not Available*
  • [empty] = Indicates an unobserved value
Date modified: